Вернуться в каталог

USA 76 DEB

LostHEO
NORAD 44302·DEBRIS·🇺🇸 United States

Запущен Nov 8, 1991 с Vandenberg Space Force Base

Loading…

Ближайшие Пролёты (ближайшие 24 часа)

TLE

УстаревшееSource: Space-Track

Эпоха: Sep 23, 2019, 04:33 UTC

1 44302U 91076P   19266.18989757  .00000013  00000-0  00000+0 0  9997
2 44302  63.3233 155.7607 3364683 269.7485  52.4686  5.52417745  6401

Отслеживайте USA 76 DEB в реальном времени с AllMySat

Download on the App Store